OPS 4682 DEB, 38387

Orbit data source: Space-Track

OPS 4682 DEB, 38387 is space debris in LEO originally from a launch on Sat, 03 Apr 1965 UTC launched from the Air Force Western Test Range (AFWTR). Debris objects in space refer to the collection of defunct objects orbiting the Earth. Examples of debris include non-operational satellites, rocket bodies, and fragments generated from explosions, collisions, or faulty payload assembly.

Loading next visibility...
Identifier
38387, 1965-027CQ
Orbit
LEO
Country
Flag of USUS
Related business
Manufacturer
Unknown
Mission
Spacecraft
Bus & Motor
Unknown
Mass
Unknown
Launch date (UTC)
1965-04-03 (61 years ago)
Launch vehicle
Unknown
Launch site
Air Force Western Test Range (AFWTR)
Object type
Payload
Rocket body
Debris
Shape & HBR
Unknown shape, 0.1 m
Radar Cross Section
Small (<0.1 m²)

Expand to show TLE details & history
Last TLE update: 1 week ago

TLE from 1 week ago
0 OPS 4682 DEB
1 38387U 65027CQ  26201.74568108  .00000393  00000-0  13458-2 0  9997
2 38387  90.2451   6.1105 0024320  20.6226 339.5870 12.96454509608198
Epoch: 2026-07-20T17:53Z
TLE epoch observation values (Epoch: 2026-07-20T17:53:46.845Z)
Latitude
-0.00003°
Longitude
159.14°
Altitude
1,261.444 km
Speed
7.233 km/s
True Right ascension
00h 24m 26s
True Declination
0° 00' 00"
Sunlit
Object was in daylight at epoch
Visualization orbit readout
Latitude
Unknown
Longitude
Unknown
Altitude
Unknown
Speed
Unknown
Apparent Right ascension
Unknown
Apparent Declination
Unknown
Sunlit
N/A
Visualization observer readout
Local Sidereal Time
19:40:49
Azimuth
Unknown
Elevation
Unknown
Doppler factor
Unknown
Orbital elements
Apogee altitude
1,291.75 km
Perigee altitude
1,254.534 km
Semi-major axis
7,651.279 km
Eccentricity
0.00243
Inclination
90.2451°
RAAN
6.1105°
Arg. of periapsis
20.6226°
True anomaly
339.48952°
Mean anomaly
339.587°
Eccentric anomaly
339.53829°
Mean motion
3.24296 °/min
Orbital period
111.01 mins
BSTAR
0.0013458
Loading maneuver chart data...
Computing Atmospheric mass density...
Loading historical data...
Loading historical data...
Loading historical data...
Loading historical data...
Loading historical data...
Loading historical data...
Loading historical data...

Documentation

Showing up to 5 results
|